Theta_e
312 312 312 312 311 316 318 318 316 317 317 312 314 315 316 318 318 319 318 320 320 325 327 324 322 323 329 334 336 337 338 336 339 340 339 348 349 348 351 350 351 350 348 344 340 340 338 337 337 335 331 327 327 326 323 321 325 332 336 338 339 339 339 338 338 337 337 337 336 336 335 334 332 329 320 315 315 316 317 319 321 319 313 310 310 310 311 311 312 311 312 313 312 312 310 309 308
312 311 311 311 312 318 320 316 315 315 314 311 314 316 317 318 317 317 318 318 319 322 321 319 319 320 327 336 341 342 343 343 347 349 347 349 349 350 351 350 351 349 347 344 341 339 337 337 337 333 328 326 328 327 323 320 321 325 331 336 337 338 338 338 337 337 337 336 337 336 336 334 333 330 323 316 316 319 324 326 322 317 313 310 311 311 311 314 315 315 315 315 314 313 312 311 309
312 312 312 312 315 319 319 315 314 313 312 311 314 317 317 317 317 317 317 317 318 318 318 319 321 326 332 338 344 344 345 348 348 348 348 349 351 350 350 351 349 349 347 343 340 339 336 336 335 330 325 327 329 327 324 322 321 321 325 330 333 336 336 337 336 336 337 336 336 336 335 334 333 330 325 319 318 323 330 332 322 315 315 313 315 314 314 316 318 318 317 315 314 314 314 313 311
311 312 315 317 316 317 318 315 314 313 311 311 313 316 317 316 317 316 318 318 318 318 319 319 323 336 339 340 346 345 345 349 348 347 348 349 350 350 351 351 349 349 347 343 341 338 336 336 331 326 325 329 329 327 326 324 322 320 321 323 327 332 335 336 336 336 336 336 336 334 333 332 331 328 326 320 321 327 330 331 322 317 320 321 319 317 315 316 318 319 318 316 315 315 315 315 313
312 313 315 320 319 316 318 316 316 313 312 313 313 316 317 317 316 316 318 318 319 318 320 321 326 340 342 345 348 346 347 349 348 347 348 349 350 350 350 350 349 348 346 344 342 340 337 334 327 323 327 330 331 329 329 328 325 322 320 319 322 328 333 335 335 336 336 334 332 331 329 329 328 326 324 321 325 332 330 327 321 320 325 326 322 320 318 316 319 320 318 318 316 315 315 315 315
314 316 314 318 320 317 317 314 314 313 315 316 314 316 317 317 317 318 319 319 320 319 321 325 331 341 344 348 349 348 349 349 349 347 348 349 350 351 350 349 349 347 346 344 344 342 337 333 325 324 329 331 332 332 332 331 329 324 320 320 321 325 330 333 335 335 334 332 330 330 331 333 334 329 322 321 324 327 327 323 319 325 328 327 326 324 320 317 320 320 319 318 317 316 315 315 314
317 318 316 317 318 316 316 314 314 314 316 317 315 317 316 317 318 318 319 320 320 321 327 331 333 339 344 348 349 349 348 349 349 347 348 350 350 350 349 348 348 347 346 344 344 342 339 332 324 325 331 332 333 333 333 331 329 324 320 320 322 326 329 332 333 332 332 331 333 335 337 339 340 335 325 321 320 320 323 322 321 329 330 328 328 325 319 319 321 321 320 318 317 316 315 315 314
318 319 318 317 317 316 316 315 315 316 317 317 317 317 316 317 318 319 321 323 321 323 328 330 327 332 342 347 347 350 348 349 348 347 348 350 351 350 349 349 348 346 345 344 344 342 338 332 324 327 332 333 333 333 333 332 329 322 319 321 323 326 329 331 331 331 331 333 336 338 339 340 340 338 330 322 320 320 323 323 323 329 329 328 329 326 319 319 322 322 322 319 318 317 316 315 315
317 318 317 316 318 316 314 315 315 317 316 316 317 317 317 318 319 322 323 324 324 324 325 322 321 329 342 347 347 349 348 349 348 347 349 350 350 349 349 349 347 346 345 345 343 340 336 330 325 328 332 333 333 333 333 332 328 321 318 321 324 326 329 332 331 331 333 335 338 338 339 339 338 337 332 324 321 321 322 323 325 328 330 330 330 328 321 319 322 323 323 321 320 319 319 317 317
316 317 316 316 316 314 313 314 315 316 316 316 316 317 318 318 320 323 324 328 329 327 326 322 322 331 340 347 348 349 349 349 348 348 349 349 349 349 349 349 348 346 345 345 342 339 335 328 326 328 331 332 333 333 333 333 329 321 317 319 322 324 329 332 332 333 335 337 338 338 338 338 336 333 330 324 321 322 323 323 325 330 331 331 329 326 320 319 322 324 325 323 322 322 322 320 319
316 316 317 316 314 312 312 313 315 316 316 316 316 318 317 318 321 324 327 333 333 328 325 322 324 331 338 347 349 348 349 348 348 349 349 349 349 349 349 349 348 346 345 344 341 338 335 327 326 328 330 332 333 333 333 333 329 322 318 317 319 321 325 328 329 333 335 336 337 336 335 333 329 327 326 323 320 321 323 324 326 330 331 331 327 322 319 319 321 323 325 324 322 322 323 322 321
317 316 315 314 313 313 313 314 315 315 316 316 316 318 317 318 320 323 328 334 335 328 323 324 331 334 334 344 350 348 349 348 348 348 348 349 349 349 349 349 348 346 345 343 340 338 335 328 324 327 330 330 332 333 333 333 330 324 319 317 318 318 320 321 325 329 332 333 333 333 333 331 325 322 324 322 321 321 320 322 327 330 331 330 325 319 318 319 321 323 324 323 322 322 322 322 322
317 317 315 314 315 315 315 314 315 315 316 316 317 317 317 318 318 322 329 335 335 329 326 329 336 340 339 347 350 348 349 349 349 348 348 349 349 349 348 349 347 346 345 342 339 336 335 331 326 330 333 331 332 333 333 333 332 325 319 319 320 321 323 324 327 330 332 332 332 333 333 331 325 323 323 320 324 326 322 321 324 329 331 330 324 319 318 319 321 322 323 323 322 322 322 322 322
316 317 315 315 316 315 314 314 315 314 315 317 317 316 317 318 317 321 328 332 335 337 337 335 337 342 345 348 349 348 349 349 348 348 349 349 349 348 348 348 346 346 345 342 340 336 335 336 333 332 334 334 334 334 334 334 333 326 320 320 321 323 327 328 331 333 333 333 332 333 332 328 325 326 324 323 328 331 329 324 321 325 329 329 324 319 318 319 319 321 322 322 322 323 322 323 323
315 316 315 315 315 315 314 314 314 314 315 317 317 316 318 318 317 320 324 329 338 343 343 341 341 344 344 344 346 348 349 349 348 348 349 349 348 348 348 347 346 346 344 342 340 336 334 338 336 332 335 336 335 336 336 335 333 327 320 320 321 323 326 329 332 334 333 333 333 332 330 327 327 327 327 327 329 331 332 329 325 323 325 327 323 319 319 319 319 321 322 322 322 322 324 324 324
315 316 315 315 313 313 314 315 314 314 315 317 317 317 317 318 318 319 323 332 341 343 344 344 345 346 345 344 347 348 348 349 348 347 348 348 348 348 348 347 346 346 344 342 340 337 336 338 338 335 336 335 335 336 336 335 335 329 320 319 321 322 326 330 333 333 333 332 331 331 330 329 329 329 329 329 328 330 332 332 330 324 322 324 322 320 322 321 321 322 323 323 322 322 324 326 326
314 315 315 314 313 313 314 315 315 314 315 317 318 317 317 317 319 317 319 333 339 339 344 345 346 347 346 347 348 348 349 349 348 348 348 348 348 348 348 347 346 345 344 343 341 340 338 338 339 338 338 336 335 336 335 335 335 332 325 321 321 323 326 329 331 331 331 330 330 329 329 332 332 331 330 329 329 331 331 331 332 327 322 321 322 323 324 323 323 323 322 322 322 322 324 327 328
314 315 315 314 314 315 315 315 315 315 316 317 318 317 317 316 318 317 317 328 333 335 344 346 347 348 347 347 346 348 348 348 348 348 348 347 347 347 347 347 346 345 344 343 341 341 340 339 340 340 339 338 337 337 337 336 335 334 330 326 325 326 326 328 329 328 329 330 329 330 332 334 334 332 331 330 331 332 331 332 331 330 325 320 321 325 326 325 324 325 325 322 322 322 324 327 329
315 316 315 314 316 316 315 315 316 316 316 317 318 317 317 317 317 317 317 322 324 331 342 344 346 348 347 346 346 347 348 349 347 347 347 346 347 346 346 346 345 345 344 343 341 341 341 339 341 341 339 338 338 337 337 336 337 334 330 328 328 327 325 326 328 327 329 331 331 334 336 335 333 332 332 331 332 332 333 333 331 330 326 319 319 324 326 327 326 326 327 326 324 323 323 326 329
315 316 315 315 316 315 315 315 316 316 317 317 317 317 317 318 317 317 318 320 323 328 334 340 346 347 347 347 346 347 347 347 346 346 345 345 346 344 344 344 343 343 343 343 342 342 341 340 340 341 339 337 338 338 337 338 338 335 330 326 327 328 327 327 327 328 332 333 334 336 336 333 332 331 331 331 332 331 332 331 327 324 323 319 318 321 324 327 328 328 329 329 327 324 326 329 331
315 316 314 316 316 315 315 315 316 316 316 317 316 317 317 317 317 317 318 318 323 326 329 336 343 346 347 346 346 347 346 346 345 344 344 345 344 344 342 340 339 341 342 342 342 342 340 339 340 340 339 337 337 337 338 338 337 335 331 325 327 332 332 332 332 333 335 334 334 334 333 331 330 328 326 328 329 327 326 325 322 321 324 322 320 322 321 324 328 329 330 330 330 326 327 332 333
315 317 315 317 316 314 317 316 316 316 316 317 317 317 316 316 316 317 318 317 320 322 326 334 342 346 346 345 346 346 345 344 344 343 343 343 343 343 339 331 328 332 340 341 341 342 340 339 339 340 339 337 337 337 337 337 335 335 332 327 330 335 336 336 336 337 336 334 333 331 330 327 324 323 322 324 325 324 323 325 326 327 327 322 322 326 322 322 327 329 328 328 329 325 326 331 332
314 316 316 317 317 315 317 316 315 316 316 317 317 316 316 316 317 317 318 316 319 321 325 334 343 346 345 346 345 345 345 344 343 342 342 341 342 343 334 327 322 326 338 341 339 340 339 339 339 339 339 338 338 337 336 336 335 335 334 330 331 334 335 336 336 337 334 332 331 329 327 325 324 322 322 323 324 326 327 328 328 328 327 321 322 327 322 321 323 323 322 323 326 325 326 330 330
314 315 316 317 316 316 316 316 316 316 316 317 316 316 316 316 316 317 317 318 325 329 333 339 345 347 345 345 345 345 344 343 343 341 340 337 338 341 333 326 326 332 340 340 338 339 338 339 340 339 339 338 338 337 336 336 335 336 335 333 331 332 334 335 335 333 330 329 329 328 327 326 324 322 322 325 326 328 327 326 326 324 324 322 322 323 320 319 319 318 319 320 324 328 330 330 329
314 313 316 316 316 316 315 316 316 316 316 316 315 316 316 316 317 315 317 326 334 339 342 344 346 345 345 345 345 344 344 344 342 336 333 329 331 336 331 328 329 334 339 339 338 338 337 339 339 338 338 338 338 337 337 337 336 336 336 333 330 332 335 335 333 331 329 330 330 330 330 328 326 324 323 324 325 326 324 323 324 323 323 322 322 322 321 321 320 319 320 322 326 330 331 330 329
315 314 315 316 315 315 315 316 316 315 315 315 315 316 316 316 315 317 326 334 340 344 345 346 345 344 344 344 344 344 344 342 333 326 328 327 328 329 326 328 329 326 330 336 338 337 336 337 338 339 338 338 339 338 338 337 337 336 335 334 330 331 335 335 333 332 331 332 332 332 332 331 331 329 326 325 325 323 323 324 324 325 325 324 324 324 324 322 321 321 322 325 328 331 332 330 329
316 315 315 316 316 316 316 315 315 315 315 314 315 315 316 317 314 320 335 339 341 344 345 345 344 343 343 343 343 344 343 335 324 327 329 324 325 325 323 328 331 324 322 331 337 335 335 337 337 339 339 338 338 338 338 337 337 336 335 335 331 329 333 333 333 333 332 333 332 332 332 333 333 332 330 327 326 324 325 328 328 328 328 326 326 326 326 325 324 323 324 326 328 330 331 329 331
315 315 315 315 315 315 315 315 315 314 315 314 315 315 315 317 313 319 334 339 340 343 344 344 343 342 342 342 342 343 340 331 326 329 330 326 326 325 328 332 333 332 329 330 334 333 334 336 337 338 338 337 338 338 338 336 336 336 335 335 332 329 329 329 331 333 332 332 332 332 333 333 333 333 332 329 328 327 328 330 330 329 329 329 329 328 327 327 327 326 325 326 326 328 329 328 330
314 314 314 313 314 314 314 315 315 314 315 315 315 314 314 316 315 322 332 337 339 341 343 343 342 342 341 341 341 339 335 331 330 331 332 331 328 327 331 332 331 332 331 328 329 331 334 336 337 337 337 338 338 336 336 335 336 336 335 334 332 331 330 328 330 332 333 332 332 332 332 332 331 332 332 331 329 329 330 331 330 331 330 330 330 328 327 327 328 327 326 326 326 327 329 329 329
314 314 314 313 314 314 314 315 314 314 314 314 314 312 314 315 316 325 333 336 338 340 342 343 342 341 341 341 340 336 334 334 333 335 336 330 326 327 329 328 328 329 329 328 328 330 332 333 335 336 336 337 338 335 334 335 335 336 335 334 333 332 331 330 330 332 332 333 333 333 332 331 330 331 332 332 331 331 331 331 331 331 330 328 327 327 327 328 328 328 327 327 326 327 329 330 331
314 314 313 313 313 313 314 315 314 315 314 314 314 311 314 316 318 326 333 336 336 337 340 342 342 341 340 340 340 337 336 337 336 338 337 327 324 327 326 326 326 326 327 329 331 333 335 336 336 336 337 337 337 336 335 335 335 335 335 334 333 332 331 330 330 331 332 333 334 333 333 332 330 330 332 332 332 331 331 331 331 331 329 326 326 326 327 329 329 328 329 329 327 328 330 330 331
314 313 313 314 313 313 314 315 314 315 314 315 314 311 314 316 318 326 333 336 336 335 338 341 342 342 340 340 340 339 339 338 338 340 336 324 322 325 325 325 325 325 326 328 332 334 336 337 336 336 337 336 336 336 336 335 335 335 335 334 333 332 331 330 330 331 333 333 333 333 333 333 331 331 331 331 331 332 332 332 331 330 328 327 326 326 327 329 329 329 329 330 329 329 331 331 330
315 313 313 314 313 313 314 314 315 315 315 315 314 313 315 316 318 326 332 335 336 335 337 340 341 342 341 340 340 340 339 339 339 339 333 324 323 324 325 325 324 326 326 327 332 335 336 336 336 337 336 337 335 335 336 335 335 335 335 334 333 332 331 331 330 332 333 332 333 335 334 333 332 331 330 330 331 333 335 333 331 329 327 328 328 326 327 328 329 329 330 330 330 331 332 330 329
315 314 314 314 313 313 313 313 315 315 314 315 315 314 315 316 319 325 330 333 334 334 335 339 340 341 342 341 340 340 340 339 339 339 333 326 325 325 326 326 326 328 328 329 332 335 336 336 336 338 336 335 335 335 335 335 335 335 334 334 333 331 331 331 331 332 333 332 333 334 334 334 332 330 331 331 331 334 335 332 330 328 327 328 327 326 328 329 329 329 330 329 328 331 331 329 329
315 315 314 314 313 313 313 313 314 314 314 314 315 315 315 316 317 322 329 332 333 333 335 337 339 339 341 342 341 340 340 339 339 339 335 328 326 326 327 326 327 328 328 328 328 331 335 335 336 338 336 334 334 334 335 335 336 335 333 333 331 330 330 332 331 332 332 331 332 333 333 333 331 330 331 332 333 333 333 330 329 328 328 328 327 327 329 330 329 329 330 328 328 330 329 328 329
315 315 314 314 313 313 313 313 314 314 314 314 314 315 315 316 317 320 325 330 332 333 335 337 338 339 339 340 341 341 341 340 339 339 336 330 327 326 328 329 331 332 330 329 328 331 335 336 336 338 336 335 335 334 333 335 336 334 332 332 331 330 331 332 332 332 333 333 333 333 332 331 331 330 330 331 332 331 331 331 329 328 328 328 328 329 330 329 329 329 329 329 328 328 327 327 328
314 314 313 313 312 313 314 314 314 314 313 313 314 315 315 316 317 319 322 326 331 333 335 337 337 339 338 338 340 341 341 341 340 340 338 333 328 327 331 333 334 335 334 334 335 334 336 336 336 336 336 336 334 333 333 335 335 333 332 332 331 332 332 332 332 332 332 333 334 334 332 330 330 329 328 329 330 330 330 330 329 328 328 328 329 331 330 329 328 328 329 328 328 328 327 327 327
315 314 313 313 313 313 315 314 314 314 313 313 314 314 315 316 316 319 321 322 326 330 333 335 336 337 337 337 338 339 341 341 341 341 340 338 330 328 333 335 335 336 336 337 337 336 336 336 336 335 336 336 335 333 334 334 335 333 332 332 332 332 333 332 332 332 332 333 334 333 330 328 329 329 328 329 329 330 330 329 328 328 328 330 331 331 330 328 328 328 328 328 329 329 327 327 328
315 314 313 313 314 314 314 315 314 314 313 313 314 314 315 316 316 318 320 319 321 325 330 333 333 334 336 336 337 338 340 340 341 341 340 338 332 330 333 335 335 336 338 338 336 336 336 337 337 336 336 336 335 334 334 334 334 332 332 333 333 333 333 333 332 331 332 333 333 331 329 328 329 329 329 329 329 330 329 329 329 328 330 332 332 331 330 328 328 328 328 329 328 329 328 327 328
315 315 313 313 314 314 313 314 315 314 314 314 315 315 315 316 316 317 320 322 321 322 327 331 332 333 334 336 336 337 339 340 341 341 340 339 336 335 334 334 336 338 338 338 337 335 336 337 338 338 337 336 335 334 334 334 333 332 333 333 333 333 333 333 332 331 331 332 332 330 329 330 330 329 329 329 329 329 329 328 329 329 330 332 332 332 330 328 328 329 330 330 329 329 327 326 328
315 315 314 314 314 314 313 314 315 314 314 315 314 313 313 315 316 315 320 325 325 323 324 329 332 334 335 336 337 337 338 340 340 341 340 339 338 338 336 335 337 339 338 338 337 335 335 336 336 337 337 336 335 334 334 334 333 332 333 333 333 333 332 331 331 330 330 331 331 330 330 330 329 329 329 329 330 329 328 328 328 328 329 329 330 332 331 328 329 330 331 330 330 330 328 327 326
315 316 315 314 314 314 313 313 314 312 312 315 314 311 312 315 316 316 320 325 326 325 324 325 328 332 335 336 338 338 337 338 339 340 340 339 338 338 337 337 338 338 338 338 337 335 335 335 335 336 337 336 335 334 334 334 333 333 333 333 332 332 331 331 330 331 330 330 330 330 331 329 329 329 329 329 329 328 327 328 327 327 327 327 328 330 331 329 329 331 330 330 330 331 330 329 327
314 315 316 314 313 313 313 313 313 311 312 316 316 312 312 315 317 317 319 321 322 326 327 326 325 327 332 336 338 338 336 336 338 339 339 338 337 337 338 338 338 338 337 337 337 335 335 335 336 336 337 336 334 334 334 334 334 333 332 332 331 331 331 331 331 331 330 330 330 330 330 329 328 329 328 328 328 327 327 327 327 327 327 326 326 327 328 328 328 329 330 330 331 331 330 330 329
314 315 314 313 313 313 314 313 312 312 314 316 316 314 312 313 315 317 319 320 321 327 329 329 328 327 329 334 337 336 336 336 337 339 338 337 337 337 337 337 337 337 337 337 336 335 335 335 336 337 337 336 335 334 334 334 334 332 331 331 331 332 332 330 330 330 330 330 330 330 330 329 329 328 327 328 327 327 327 327 327 327 327 326 325 325 325 325 326 327 328 329 331 331 329 330 330
314 314 313 313 314 314 314 313 313 314 315 314 314 316 313 312 314 319 320 318 322 329 329 328 329 329 331 334 335 335 336 336 337 338 337 336 336 336 337 337 337 336 336 336 335 335 335 335 335 336 336 335 334 334 334 334 333 331 331 332 332 333 332 329 329 329 329 330 329 330 330 329 328 328 327 326 326 327 326 327 326 326 326 325 325 326 325 325 326 325 326 326 328 329 328 329 330
314 314 313 313 314 314 314 314 313 315 315 313 314 315 313 312 313 317 320 321 326 329 329 329 330 331 332 334 334 335 336 336 337 337 336 336 336 336 336 337 336 335 335 335 335 335 334 334 334 335 335 334 334 334 334 334 332 331 332 332 332 332 330 329 328 327 329 330 330 329 327 326 326 327 326 325 325 324 323 323 323 322 322 320 322 324 324 324 324 324 325 324 324 326 328 328 328
314 313 313 313 314 314 315 315 314 316 315 313 314 316 314 311 313 320 325 327 329 329 328 329 330 331 332 334 335 336 336 336 336 335 335 335 335 335 336 336 336 335 335 335 334 334 334 334 334 334 334 334 334 334 334 333 331 331 333 332 331 330 329 329 328 327 328 330 330 328 325 324 325 326 325 323 323 322 320 319 320 320 319 318 319 321 322 322 321 320 322 322 322 324 327 328 327
313 313 313 314 314 315 315 315 316 315 314 314 314 316 315 311 315 326 329 328 327 328 328 328 329 330 331 333 335 336 336 335 335 334 334 334 334 335 336 336 337 336 336 335 334 333 333 333 333 334 334 333 333 332 332 331 330 331 331 330 330 329 328 329 329 327 328 329 329 328 326 326 326 326 325 323 321 319 317 317 317 319 318 317 319 320 320 320 319 317 318 320 322 323 324 326 328
313 312 313 313 313 314 314 314 315 314 313 315 315 315 314 313 321 329 328 327 326 327 329 329 329 330 331 333 334 335 335 335 334 333 334 334 335 336 336 336 337 336 335 334 334 333 333 333 333 333 333 331 330 330 330 329 329 330 330 329 329 327 326 328 328 326 327 328 328 327 326 325 325 324 323 321 317 314 315 315 316 319 319 319 320 319 317 317 317 318 319 321 324 323 323 326 329
312 312 313 313 312 314 315 314 314 313 313 315 316 316 313 313 323 329 327 327 328 329 330 330 330 331 331 333 334 333 333 333 332 333 333 334 335 335 335 336 336 335 334 334 334 333 333 332 332 332 331 329 328 329 329 329 329 330 329 329 329 326 326 327 326 324 326 326 325 324 323 323 321 319 317 316 313 313 317 317 316 317 318 317 316 314 314 315 318 321 322 322 324 323 323 326 327
313 313 313 314 312 313 314 313 312 312 314 316 316 315 312 314 323 328 327 329 329 329 330 330 330 331 331 332 333 332 332 331 331 332 332 333 334 334 335 335 335 334 334 333 333 333 333 332 331 332 330 327 328 329 329 330 330 329 329 328 327 327 327 326 324 323 321 319 318 318 319 319 316 315 316 316 314 316 318 316 313 311 310 310 311 312 316 318 320 322 323 323 323 323 323 324 324
314 314 313 314 314 314 314 315 315 314 313 315 316 314 315 321 325 327 327 328 329 330 331 330 330 331 331 331 332 332 331 331 331 332 332 333 332 333 334 335 334 333 333 333 333 333 333 332 331 331 329 327 328 329 329 330 329 329 329 327 327 328 328 325 323 320 315 313 314 316 319 319 316 316 319 317 316 317 316 312 309 306 306 309 313 316 319 321 321 322 322 322 322 322 321 322 322
314 314 313 314 316 315 314 316 318 315 313 315 315 314 317 322 325 326 326 326 328 329 330 331 330 330 331 331 331 331 331 331 331 332 333 333 332 332 333 333 333 333 332 333 333 333 333 332 331 331 330 329 328 328 328 327 326 327 327 327 328 328 326 323 321 317 314 315 317 320 321 320 318 318 317 315 316 317 314 310 308 305 306 310 315 318 320 321 321 321 320 321 320 320 320 320 321
314 313 314 315 316 316 315 315 316 314 313 315 315 314 316 318 322 326 326 326 327 328 329 331 331 331 331 332 332 332 332 332 332 332 333 333 332 332 332 332 333 333 332 332 333 333 333 332 331 331 331 329 326 326 328 327 325 325 326 327 327 326 325 322 319 317 317 318 320 322 322 319 317 316 314 314 317 316 313 311 307 304 306 310 315 318 319 320 321 320 319 319 318 319 319 318 318
314 314 315 315 315 315 315 314 315 315 314 314 315 314 314 316 321 326 327 326 327 328 329 330 331 331 331 331 331 331 332 332 332 332 332 332 331 332 332 331 332 333 332 332 332 333 333 332 332 331 330 328 325 326 328 328 327 326 327 327 326 326 326 323 320 318 318 319 322 323 322 317 314 312 312 315 318 317 313 310 307 305 305 308 312 316 318 319 320 319 319 319 318 318 318 316 316
313 314 315 316 316 315 315 315 315 315 314 314 315 314 317 321 325 326 326 326 327 328 328 329 330 331 330 330 330 330 331 331 331 331 331 331 331 331 332 332 332 333 333 333 332 333 333 332 332 333 331 328 325 325 327 328 327 327 327 327 326 327 326 323 320 318 318 319 321 323 322 316 311 310 313 317 319 318 314 309 307 305 305 306 308 313 318 318 318 319 319 318 317 317 317 317 318
313 313 314 315 315 316 316 316 315 314 314 315 314 315 322 326 325 325 325 324 326 327 328 328 329 329 329 329 330 330 331 331 331 331 331 331 331 331 332 332 332 333 333 333 333 333 332 332 332 333 331 329 326 325 326 328 327 327 327 326 327 328 327 324 319 318 318 318 319 322 322 316 310 310 314 319 321 320 317 313 310 307 305 305 306 311 316 318 318 317 316 315 315 316 317 318 319
315 315 314 314 315 315 315 315 315 314 313 315 314 315 323 326 323 323 324 324 325 327 327 326 327 327 327 328 328 328 328 329 330 330 330 330 330 330 331 331 332 332 332 332 332 331 331 332 332 332 331 330 327 325 326 327 327 328 328 327 328 328 327 325 320 319 321 320 320 322 321 317 313 310 313 319 321 320 319 318 315 311 307 306 306 309 314 317 316 312 309 310 314 316 317 318 318
Wind_Speed
6 7 7 8 11 9 7 7 5 4 4 6 5 5 2 2 2 1 3 2 2 2 1 5 7 10 8 9 8 9 10 7 7 4 0 4 5 13 16 15 19 22 23 26 30 29 26 25 23 22 20 20 18 17 17 18 20 21 22 22 23 23 22 21 20 19 18 18 16 15 14 13 13 13 13 14 15 16 16 17 18 17 18 18 18 18 18 19 19 18 18 19 23 25 27 27 27
7 7 7 9 11 6 5 6 5 3 5 6 4 3 3 3 2 2 1 1 3 4 6 10 12 13 10 10 10 10 8 5 6 4 4 5 11 14 14 16 19 23 24 26 30 29 27 25 23 22 21 20 18 17 17 18 19 20 21 21 22 22 22 21 20 19 18 18 16 15 14 13 12 12 12 13 15 15 15 16 17 18 19 19 18 18 18 17 18 18 18 19 22 24 26 27 27
10 9 8 9 10 4 3 5 6 3 5 6 2 3 2 2 2 2 3 5 7 9 11 12 13 10 8 9 6 7 3 1 2 4 5 8 12 13 14 16 19 22 23 26 30 29 27 26 24 22 21 20 18 17 17 17 17 18 19 20 21 22 22 21 21 20 18 17 16 15 14 13 12 12 12 13 15 15 15 16 17 19 19 18 18 18 17 17 18 18 18 19 22 24 26 27 27
11 10 9 8 7 6 5 5 5 4 5 5 0 5 3 2 4 4 5 8 9 11 11 11 9 3 6 6 1 4 2 1 1 2 6 9 11 14 17 18 21 22 21 25 28 28 28 26 24 23 22 20 18 17 16 16 16 17 18 19 20 21 22 21 20 19 18 16 15 14 13 13 13 12 12 12 15 15 15 16 18 19 19 17 17 17 17 17 18 19 19 20 22 23 25 26 27
11 10 11 8 6 3 4 4 3 6 5 3 1 5 4 3 5 7 8 9 9 10 9 9 6 2 4 3 3 4 1 0 2 3 7 10 12 17 19 20 23 22 21 23 23 25 28 26 24 23 22 20 18 17 16 15 15 15 16 18 20 21 21 20 19 18 17 16 15 14 13 12 12 12 12 13 15 16 15 16 18 19 18 17 18 17 17 18 19 20 20 21 22 22 24 25 26
9 8 10 7 5 2 4 4 4 7 3 3 3 3 2 4 8 9 10 10 8 7 6 6 5 3 3 2 1 3 2 1 3 5 9 11 15 18 20 22 23 21 21 22 20 22 27 26 24 23 21 19 17 16 15 14 14 14 15 17 19 20 20 20 19 18 17 16 15 13 13 12 12 13 12 13 15 15 15 17 19 19 17 17 18 17 17 19 19 20 21 21 22 22 23 24 25
10 8 9 7 4 3 6 5 5 5 1 2 5 4 5 7 10 10 10 9 5 3 4 4 4 5 3 5 3 4 2 1 3 6 10 13 17 19 20 22 23 22 21 22 18 20 26 25 24 22 20 19 17 16 14 14 13 13 15 16 18 19 20 19 19 18 17 16 15 14 14 14 15 13 12 13 15 15 15 18 20 19 17 17 17 16 17 19 20 20 21 21 22 22 22 22 23
11 7 7 7 4 4 6 5 5 3 2 2 4 5 7 9 10 10 10 8 5 3 5 5 6 7 2 3 1 4 2 2 5 9 13 16 20 20 20 22 24 23 21 20 18 21 26 24 24 22 20 19 18 16 14 13 13 13 14 16 17 18 19 18 18 18 17 16 16 17 16 15 14 11 10 12 14 16 16 18 20 18 17 17 17 16 17 19 20 21 20 21 21 22 22 22 21
10 5 5 6 4 4 6 6 4 3 1 2 3 4 5 7 9 10 9 8 7 6 7 6 6 6 4 4 3 5 2 5 9 12 16 19 21 19 21 22 23 23 21 19 19 25 27 24 24 22 21 20 18 16 14 13 13 13 13 15 16 18 19 17 17 17 18 18 18 18 16 15 12 10 10 11 14 16 16 18 20 18 17 16 16 16 17 19 21 21 20 21 21 21 21 20 20
9 7 4 5 4 5 6 5 3 1 1 1 2 3 5 7 9 9 9 8 7 7 6 5 7 7 3 5 5 4 3 8 12 15 17 19 20 19 20 21 21 23 21 19 21 26 27 24 24 22 21 20 18 16 14 13 13 13 14 15 17 19 19 18 18 18 19 18 18 18 16 13 11 10 10 11 14 17 17 19 20 18 17 16 16 16 17 19 21 20 20 20 20 20 19 19 18
8 7 5 5 5 6 5 3 2 2 2 0 1 3 6 9 9 9 9 7 5 6 5 5 8 9 6 4 5 4 6 10 13 16 19 19 19 19 20 20 20 22 21 20 23 26 27 25 23 22 21 19 18 16 14 13 13 13 14 15 17 19 19 19 19 19 19 18 17 15 13 11 10 10 8 10 15 17 17 20 21 18 17 16 16 16 17 19 21 20 20 20 19 19 18 17 17
7 5 6 6 5 5 3 2 1 1 1 2 4 6 9 9 9 9 10 8 4 4 4 6 3 6 8 5 6 6 9 11 14 16 19 19 19 19 19 19 20 21 21 22 25 27 27 26 24 22 21 19 18 16 14 13 13 13 13 15 16 18 18 19 19 19 19 17 16 14 12 11 10 11 9 11 13 14 16 20 21 19 17 17 16 16 17 19 20 20 19 19 18 17 17 16 16
7 4 6 5 4 4 3 3 1 2 2 5 5 7 9 8 11 11 11 10 3 2 2 4 2 4 6 5 7 7 10 13 14 17 19 19 18 19 19 18 20 21 22 23 26 28 26 25 24 22 21 19 18 16 14 13 13 13 14 15 16 17 18 18 19 19 19 17 16 14 12 11 11 12 11 11 12 12 12 16 20 19 18 16 16 16 16 18 19 19 18 18 17 16 15 14 14
7 4 6 5 4 5 4 4 2 3 3 7 5 9 9 6 11 11 11 10 4 5 3 2 4 5 4 4 7 10 12 15 16 17 18 18 19 19 19 19 20 22 22 24 27 28 26 24 23 22 21 19 18 16 15 13 13 13 14 15 16 17 18 18 18 18 18 16 15 14 12 11 11 12 12 13 13 12 11 11 15 18 18 16 16 16 17 17 17 18 18 17 16 15 14 13 12
6 5 5 5 5 5 4 3 2 3 3 6 4 10 9 5 9 11 11 10 5 6 3 3 5 3 3 3 4 12 15 16 18 18 18 18 19 19 19 19 20 22 23 25 27 28 27 23 23 23 22 20 19 18 16 14 13 14 14 15 16 17 18 18 18 17 17 15 14 13 12 12 12 13 12 14 14 13 12 10 11 15 17 17 16 16 17 16 15 15 16 15 14 14 13 12 11
6 4 5 5 6 5 3 3 2 3 3 5 6 11 10 7 10 10 11 9 5 4 2 3 3 0 2 4 2 13 17 18 19 18 19 19 18 18 19 20 20 22 23 25 27 28 28 26 24 24 22 21 20 19 17 17 15 15 15 16 17 18 19 18 17 16 15 14 14 13 13 13 13 13 13 13 15 15 14 12 10 12 15 16 16 16 16 15 14 13 13 13 12 12 11 11 11
6 5 6 5 7 5 2 3 1 1 3 5 8 11 10 9 10 10 10 7 4 5 2 2 3 1 5 6 6 14 17 18 20 18 19 19 17 17 19 20 21 23 23 25 28 28 28 28 27 25 24 23 21 20 19 19 17 16 16 17 17 18 19 18 16 15 14 14 14 14 14 16 15 15 14 13 15 15 15 13 11 11 14 16 16 15 15 15 13 12 11 11 10 10 9 8 9
7 5 6 6 6 2 3 1 3 5 4 7 10 11 10 11 11 13 11 4 4 4 2 3 3 2 6 7 10 13 15 17 17 16 16 15 15 16 17 19 23 24 24 26 28 28 28 28 26 24 24 24 22 21 20 20 19 18 17 17 17 17 18 17 15 14 14 14 15 15 14 15 15 15 15 14 15 15 14 14 12 12 14 16 16 15 15 15 13 12 12 11 10 8 7 6 6
9 5 6 7 2 4 4 3 4 5 6 9 10 10 10 10 11 13 11 7 7 3 4 5 5 6 8 10 11 12 16 17 16 17 16 16 16 14 15 17 21 24 24 26 27 26 25 26 25 22 25 25 23 21 20 20 20 20 18 18 17 17 17 17 16 15 15 15 16 15 14 15 15 14 15 15 15 15 14 14 14 14 14 15 15 15 15 15 13 13 12 11 10 8 6 5 3
10 7 7 4 1 4 3 2 3 5 8 9 10 11 11 9 10 11 11 10 6 1 2 3 6 9 9 10 12 14 18 18 19 21 20 21 17 13 14 14 16 20 22 23 24 24 24 26 25 22 24 25 22 20 20 21 20 20 18 18 18 17 17 18 18 17 16 16 16 15 15 15 13 12 13 14 15 13 13 14 14 13 13 15 15 15 15 15 14 13 12 11 9 8 6 4 4
8 8 7 2 2 1 3 2 4 6 9 10 11 12 11 10 11 11 10 10 2 5 7 4 6 11 11 12 14 14 17 18 21 21 20 19 15 14 12 8 10 12 18 22 22 23 24 26 25 22 23 23 22 20 20 20 19 20 19 18 18 18 17 18 18 17 16 16 17 16 15 14 13 13 14 15 15 14 13 13 11 10 10 12 13 12 14 15 14 13 13 12 10 9 8 7 6
6 8 9 3 1 3 2 1 6 8 10 10 11 11 10 12 12 10 9 8 4 7 7 5 6 12 14 14 14 16 16 16 18 18 17 17 17 17 10 7 16 16 15 22 21 20 21 22 22 21 20 21 21 19 19 18 18 19 19 19 18 18 18 17 17 15 16 17 17 16 15 14 14 16 16 16 16 15 14 12 11 9 8 11 11 9 12 13 12 11 12 13 12 10 9 8 9
7 7 10 8 6 6 4 6 8 9 11 11 12 11 12 14 12 8 9 9 7 8 3 3 8 12 13 14 15 17 17 15 15 14 15 16 18 19 13 10 14 17 19 23 20 19 18 19 19 20 19 20 20 18 18 18 18 18 17 18 18 19 19 19 18 16 17 18 17 16 16 16 16 17 16 16 16 15 13 13 12 10 9 11 11 9 11 12 11 11 11 12 11 9 7 7 7
10 6 6 8 8 9 9 10 10 10 12 12 13 13 12 13 10 9 10 8 6 4 2 7 11 14 14 15 15 16 16 15 15 12 10 9 14 19 15 8 3 9 25 22 18 19 18 20 19 19 20 20 20 19 19 19 19 18 17 18 18 20 20 20 20 19 19 19 18 18 19 18 17 17 16 15 15 14 14 14 13 12 11 11 11 11 10 10 9 9 9 10 8 6 5 6 6
12 10 6 7 7 8 9 10 10 11 12 12 13 12 12 11 10 12 10 5 3 4 8 12 14 15 15 16 15 15 14 13 13 12 11 9 12 19 12 8 12 19 21 16 18 20 19 20 20 20 21 20 20 20 20 20 20 19 17 18 18 19 19 20 20 19 20 20 19 19 20 20 19 17 16 15 15 15 16 15 13 13 12 12 11 11 10 10 9 8 8 8 7 7 6 6 6
9 13 10 8 8 8 10 10 11 11 11 11 12 12 11 8 8 8 2 4 4 7 11 13 14 15 15 16 16 14 13 14 15 16 15 12 13 18 13 13 21 24 18 17 19 20 21 21 20 20 21 22 21 20 21 21 20 19 18 17 17 18 19 20 20 19 20 20 20 20 19 19 18 16 15 16 16 16 16 14 13 12 12 12 11 11 10 10 9 9 8 7 7 7 6 6 5
2 8 9 9 9 9 9 10 10 10 11 12 12 12 10 7 7 3 6 6 5 9 12 13 14 14 15 16 15 14 15 18 19 17 16 12 12 17 14 15 25 27 28 30 24 21 22 20 19 19 19 21 20 20 20 19 19 19 19 17 17 19 19 18 18 18 19 19 19 19 18 17 17 16 14 14 15 15 15 13 12 12 11 11 11 10 10 10 9 9 9 8 8 7 7 6 6
3 6 7 9 9 9 9 9 9 9 9 10 11 11 10 9 9 4 6 6 6 9 11 13 13 14 14 15 15 15 18 20 18 17 16 13 13 17 16 20 26 26 33 38 28 22 21 19 20 19 17 18 20 20 17 17 18 18 18 17 17 19 18 17 17 18 18 18 18 17 17 17 16 15 14 13 13 13 13 11 11 10 9 9 8 9 9 9 9 9 9 8 8 8 7 7 7
6 6 7 7 8 9 8 8 8 8 7 6 7 9 10 11 8 4 6 5 7 9 11 12 13 14 15 14 15 17 20 19 16 14 14 14 17 21 21 23 24 22 29 37 33 27 23 21 21 18 17 18 19 18 16 17 18 17 17 17 18 17 15 16 17 18 19 19 19 18 17 17 16 15 13 13 12 12 11 10 9 8 8 7 7 7 7 8 8 8 9 9 8 8 7 7 7
6 6 6 5 7 6 5 4 6 7 5 3 6 7 7 11 6 7 6 7 9 10 11 12 13 14 15 14 16 19 19 17 13 10 12 17 21 24 23 24 27 27 28 34 33 28 25 23 22 20 18 18 17 16 17 18 18 18 18 17 16 15 13 15 17 18 20 21 20 19 18 17 16 15 13 13 12 11 11 9 8 7 7 8 8 8 7 7 8 8 8 8 8 6 6 7 6
5 4 5 5 5 4 7 2 4 4 2 4 9 7 5 8 9 8 6 8 10 11 12 12 13 14 15 15 16 18 18 15 13 9 12 19 22 22 25 29 30 28 27 28 27 24 24 23 22 21 17 16 19 19 19 19 18 19 19 18 16 14 14 16 17 18 21 23 21 19 18 17 16 15 13 13 12 11 10 9 8 7 7 7 8 8 8 8 8 8 8 6 6 6 6 7 7
5 4 4 5 4 3 6 3 2 1 3 5 9 7 6 5 9 8 6 7 9 11 13 14 14 14 15 15 15 17 17 15 13 10 14 21 22 21 25 28 28 25 25 24 22 20 19 19 19 20 18 17 20 20 18 18 19 20 19 17 16 14 15 16 17 19 21 22 18 16 17 16 15 15 14 13 13 11 10 9 8 7 7 7 8 8 7 8 8 8 7 6 6 6 5 6 7
5 6 4 3 4 2 5 5 2 2 0 5 7 6 6 3 8 8 6 6 8 9 12 13 14 14 14 15 15 16 16 16 13 12 16 22 22 22 24 26 27 27 27 24 21 19 18 19 18 18 19 18 19 19 18 18 20 20 18 17 16 14 15 16 18 19 20 18 15 14 16 16 15 15 14 14 13 11 9 9 9 8 7 7 7 7 7 8 8 7 7 6 6 6 6 7 7
6 5 4 3 4 3 2 5 5 2 4 5 6 6 7 4 4 7 6 6 7 8 10 12 13 14 15 16 15 16 16 16 15 13 17 22 23 25 25 25 28 28 25 21 18 17 17 18 18 18 19 18 19 20 19 18 19 19 18 16 15 14 16 17 19 20 18 17 16 15 16 16 16 15 14 13 13 11 10 10 9 8 8 8 7 7 7 8 8 7 7 7 7 6 6 7 7
4 5 4 3 4 5 4 2 3 2 5 6 7 7 9 9 4 7 6 5 6 7 9 11 13 14 15 16 15 16 16 17 17 13 16 21 23 25 26 25 26 24 21 17 15 14 15 17 19 21 20 19 20 20 18 18 19 19 17 15 14 15 17 18 18 18 16 16 16 16 17 16 15 15 13 12 12 11 11 10 9 8 8 8 7 7 7 8 8 7 6 7 7 7 7 7 7
1 2 3 3 3 4 3 1 1 3 6 8 9 9 8 9 6 7 6 5 6 7 9 11 12 13 15 16 16 17 17 17 17 14 16 20 22 25 24 22 18 16 17 15 12 13 15 20 23 22 21 19 19 19 17 16 18 18 16 15 15 16 18 19 18 16 14 14 14 14 16 16 14 13 12 12 11 11 11 10 9 8 8 8 8 7 7 8 8 8 7 6 7 7 7 7 7
2 3 4 5 5 4 3 3 3 3 6 8 9 10 9 9 8 5 6 5 6 8 10 11 13 14 15 16 17 17 16 16 16 16 17 17 21 23 18 14 12 11 12 10 8 10 14 20 23 23 21 16 15 18 18 17 18 18 16 16 17 18 19 19 18 16 15 15 13 12 12 13 13 12 11 11 11 10 10 10 9 9 8 9 8 8 8 8 8 8 7 6 6 6 6 6 6
5 6 6 6 7 4 3 4 5 2 5 9 10 11 10 11 11 5 5 5 8 9 11 12 14 14 15 17 17 16 15 14 16 18 18 16 20 22 14 9 10 10 9 8 8 9 11 15 18 20 18 13 12 15 17 18 19 18 17 17 17 18 19 19 18 17 16 15 15 13 12 12 11 11 11 10 10 9 9 9 9 9 9 8 8 9 9 9 8 8 7 7 6 5 6 7 7
6 6 6 6 5 3 3 5 5 3 4 7 8 9 9 11 11 7 5 7 9 10 12 14 15 15 15 16 16 15 15 16 17 18 18 18 21 20 13 10 10 9 9 9 9 11 12 12 13 14 14 13 13 14 16 18 18 18 18 17 17 18 19 18 17 16 16 15 16 15 13 12 11 10 10 10 10 9 9 8 8 9 9 8 8 9 9 9 8 9 8 8 7 6 6 7 8
7 6 6 6 3 2 3 5 5 4 6 7 7 7 8 9 11 10 9 8 8 9 12 14 15 15 14 14 14 16 18 19 19 17 16 17 18 16 13 11 11 9 9 9 10 11 13 15 14 14 15 15 15 16 17 17 18 18 16 15 16 17 17 17 16 16 16 15 16 15 13 13 11 10 9 9 8 8 8 8 8 9 9 9 8 7 8 9 8 9 9 8 7 6 6 7 9
8 9 9 7 4 4 5 4 3 5 8 9 8 7 8 10 12 11 8 9 8 9 11 14 15 15 14 12 13 16 17 18 19 17 14 14 14 14 13 13 12 10 8 9 11 11 11 13 15 16 16 15 16 18 18 17 18 18 16 15 17 17 16 17 17 17 16 16 16 15 13 12 10 9 8 8 7 7 8 8 8 9 9 9 9 7 7 8 8 8 8 8 7 6 5 6 9
7 9 10 10 9 9 10 8 5 7 8 8 7 7 6 8 11 11 8 9 9 9 10 12 14 15 15 14 14 15 15 17 18 17 14 12 12 13 15 15 13 10 8 9 10 10 9 11 14 15 14 13 15 18 17 16 18 18 18 18 17 16 16 17 17 16 16 15 15 14 12 11 9 8 8 7 7 7 7 8 8 8 8 8 8 8 7 8 8 8 8 7 7 6 6 5 7
6 5 7 10 11 10 9 7 6 6 3 5 7 8 6 5 7 9 9 9 10 9 8 10 12 14 16 16 14 14 15 15 16 17 14 11 11 11 13 13 11 8 8 9 9 8 9 9 12 14 13 12 14 16 15 16 17 17 18 18 17 15 16 16 15 15 15 13 12 12 11 10 9 8 8 7 7 7 7 8 8 8 7 7 7 7 7 7 8 8 8 7 6 7 7 6 6
4 3 2 7 8 9 9 8 8 6 1 4 8 8 6 5 6 7 8 9 9 7 5 7 10 12 14 16 14 14 15 14 15 16 13 11 11 10 10 10 9 9 8 8 8 7 8 9 10 13 13 12 12 13 14 15 17 19 19 18 15 14 14 15 15 14 13 11 11 11 10 9 9 8 8 7 7 7 7 7 8 8 7 7 6 6 6 7 7 7 7 7 7 7 8 8 8
3 4 1 5 4 6 8 7 8 5 3 6 9 8 6 7 6 6 7 9 7 4 1 3 7 9 11 14 15 14 14 14 14 14 12 11 12 11 10 11 12 11 8 6 7 7 8 11 11 12 14 13 12 12 13 15 17 19 18 16 14 13 13 14 14 13 12 11 11 11 10 9 9 8 8 8 8 7 7 7 7 7 7 7 6 6 6 6 6 6 5 6 6 6 8 9 9
1 2 3 3 4 5 6 7 6 4 5 8 8 9 7 7 6 6 6 6 3 1 1 0 3 7 10 13 14 13 14 14 12 12 12 12 12 11 11 11 12 11 9 8 9 9 10 11 12 11 13 14 12 12 14 15 16 17 15 13 13 13 13 12 12 13 13 12 12 12 11 10 9 9 9 9 9 8 8 8 8 8 7 7 7 6 6 6 6 6 5 5 5 5 7 8 8
1 3 6 5 5 5 5 6 5 5 8 9 8 9 8 8 4 2 2 1 2 2 2 0 1 6 10 12 13 13 15 15 12 11 12 11 12 12 11 12 12 10 9 11 12 11 11 11 12 11 10 12 12 13 15 16 16 15 13 11 12 13 12 11 12 13 13 12 12 12 11 10 10 9 10 11 11 10 10 10 9 9 8 8 7 6 6 5 6 7 6 5 6 6 6 7 7
4 6 7 5 5 5 5 6 5 7 8 5 6 7 9 9 2 4 5 4 3 4 4 3 2 6 10 11 12 12 14 14 12 10 11 11 13 15 13 13 14 12 12 14 13 12 12 13 15 13 11 13 14 15 17 17 17 17 14 12 12 12 11 11 12 13 12 11 11 11 10 10 10 10 10 11 11 11 10 9 9 8 9 8 8 8 7 6 7 7 6 6 6 6 6 5 5
7 7 6 7 6 6 7 7 6 8 5 4 4 5 7 7 1 5 5 4 3 4 4 2 3 6 10 11 12 14 14 14 13 11 11 11 13 14 14 14 14 12 13 15 14 13 12 14 18 17 16 18 18 20 21 19 17 18 16 13 12 12 11 11 11 12 12 12 11 12 12 12 11 12 11 11 11 11 10 9 8 8 7 8 8 9 8 7 6 5 6 6 6 6 6 5 5
9 8 7 8 7 6 8 7 7 7 4 4 3 3 7 7 3 7 5 4 4 4 3 1 2 5 9 11 13 13 12 11 11 12 13 13 14 14 14 15 14 11 13 16 15 14 13 15 18 20 21 21 21 22 21 18 17 17 15 13 13 13 11 11 11 11 11 13 14 13 13 13 13 14 14 13 12 11 10 9 8 7 7 8 8 9 9 8 7 5 5 6 6 7 8 7 6
10 9 8 8 7 7 7 6 6 7 4 4 4 4 6 6 3 6 4 4 5 5 5 6 5 7 10 10 11 11 10 10 12 13 14 14 15 14 13 14 13 12 15 17 15 14 14 16 19 21 22 22 21 21 19 16 16 15 14 13 13 13 13 12 11 10 11 14 15 15 14 14 14 15 14 13 12 11 10 9 8 7 7 8 8 10 10 10 9 8 7 7 8 9 10 9 8
7 7 8 7 7 6 4 2 2 3 4 3 5 4 3 1 5 5 4 5 7 6 7 7 7 8 10 11 11 11 10 12 12 12 13 13 14 13 12 12 11 12 15 17 17 16 15 16 20 22 22 21 20 19 18 16 15 14 13 13 13 14 14 13 12 12 12 14 15 15 14 14 15 14 13 13 13 12 11 10 8 7 7 8 10 12 12 11 11 11 10 10 10 10 10 9 8
5 6 8 6 4 6 4 1 3 0 6 4 4 6 3 5 4 4 5 5 6 7 7 8 9 9 8 10 12 12 11 11 12 12 12 13 14 12 10 10 9 11 15 18 19 18 16 16 19 22 20 19 19 18 17 17 16 14 14 15 15 14 13 12 12 13 14 14 16 15 13 13 14 14 14 15 15 13 12 9 7 7 8 10 12 13 13 13 13 12 12 11 11 10 9 7 6
4 5 6 4 2 5 5 4 3 4 7 4 4 7 6 5 3 3 4 3 5 6 7 8 9 9 8 9 11 12 12 12 11 12 11 11 11 9 9 10 10 11 14 16 18 18 17 15 17 21 20 19 20 20 19 17 16 15 15 17 17 15 13 11 11 13 14 15 16 14 13 13 14 14 15 17 16 14 12 9 8 8 9 10 12 13 13 14 13 13 12 11 11 9 7 5 5
8 4 3 3 4 6 6 5 5 6 7 5 5 8 6 4 3 4 3 3 4 5 7 8 8 8 9 11 11 10 12 12 12 12 11 10 9 7 8 9 10 11 12 13 15 16 15 14 16 20 21 21 21 21 20 18 17 17 17 18 18 16 13 12 11 13 15 16 16 13 13 13 13 14 16 18 17 15 12 11 9 9 10 10 12 13 14 14 13 12 11 10 9 8 6 6 7
9 6 5 5 4 4 4 5 5 5 6 5 5 6 3 1 4 4 4 4 5 5 6 6 8 9 10 11 10 9 11 12 11 10 9 8 7 6 7 8 10 12 11 12 14 16 14 13 15 18 21 22 23 23 22 19 18 19 19 19 18 16 14 12 12 14 16 17 17 14 13 13 12 14 17 18 17 14 13 12 11 10 10 10 12 14 14 13 12 11 10 8 9 8 7 8 9
9 8 8 7 4 4 4 4 5 5 5 5 5 5 2 4 4 3 4 4 4 5 7 6 7 8 8 8 7 7 9 9 9 9 8 8 7 7 7 8 10 11 11 12 14 14 14 15 17 17 19 21 22 23 23 20 20 20 20 21 19 16 14 13 13 15 16 16 16 14 13 13 13 14 17 17 15 14 13 12 11 11 10 10 11 14 14 12 11 10 10 9 9 9 9 8 9
6 7 8 8 7 5 6 6 6 5 5 4 5 3 3 4 3 3 4 4 4 5 8 7 7 6 7 6 5 6 7 6 7 7 7 7 7 7 7 8 10 10 10 13 13 13 14 16 17 17 17 19 21 23 22 20 20 21 21 21 20 17 15 14 14 16 15 14 14 15 13 13 13 14 16 16 14 13 13 12 11 11 10 10 10 13 14 12 11 10 10 11 11 10 10 9 9
Wind_Direction
166 170 171 167 152 147 180 205 227 198 237 258 243 259 132 116 335 272 207 170 221 139 351 312 312 306 280 277 285 287 295 288 317 320 239 50 125 151 159 159 161 165 158 162 167 166 167 169 169 169 167 163 161 161 164 164 166 168 168 169 170 171 171 171 171 171 168 163 159 158 155 151 148 144 147 144 142 142 141 138 135 134 132 128 126 123 118 117 118 118 112 105 100 95 93 91 89
173 169 168 163 153 168 192 205 255 196 220 252 230 241 84 115 221 246 277 337 322 359 317 300 297 293 270 268 277 271 271 273 332 22 74 98 138 150 164 164 163 163 157 161 164 165 167 169 169 169 166 161 161 161 162 163 166 169 172 173 174 175 175 175 173 173 170 165 162 161 158 156 153 149 150 148 145 145 142 140 141 139 136 133 131 126 120 119 122 121 115 108 102 97 96 94 92
173 164 162 163 162 216 213 199 257 236 233 259 194 96 59 201 189 20 356 328 324 318 302 299 294 286 250 239 243 251 257 32 18 73 100 131 148 155 163 164 165 161 156 162 164 165 167 168 168 167 164 160 159 160 160 159 163 168 173 176 178 179 179 178 175 175 172 167 165 162 161 160 156 155 156 151 146 145 142 144 146 142 138 138 134 127 124 121 120 122 119 111 104 100 99 97 95
169 164 163 178 189 221 218 211 255 259 253 265 132 88 89 107 58 10 337 317 310 301 296 297 290 277 251 247 266 263 257 54 129 106 130 151 167 160 156 161 164 159 154 160 163 166 168 168 166 166 162 159 158 157 158 158 161 165 170 176 180 181 182 180 175 175 172 166 164 163 163 161 158 158 159 152 146 145 148 149 147 143 140 138 132 127 126 120 116 121 122 114 108 104 102 99 98
165 172 169 192 227 219 228 239 249 251 260 296 342 101 101 49 6 334 325 311 301 295 290 287 280 202 244 279 338 293 335 99 163 140 148 160 173 159 156 163 162 158 154 156 161 166 168 166 165 165 161 158 158 157 159 158 160 164 168 174 178 182 182 178 174 172 168 163 161 160 159 158 157 158 158 155 149 150 154 151 147 143 140 137 133 131 127 120 118 122 121 116 111 108 105 102 100
161 174 175 206 263 258 246 240 227 241 256 318 307 81 69 355 341 326 318 311 303 292 277 275 279 238 212 124 9 354 28 210 155 154 156 159 164 156 158 165 163 155 154 158 159 163 166 164 165 164 159 158 160 160 161 161 162 165 169 171 175 178 177 174 171 168 164 161 158 157 156 153 153 156 159 161 159 161 159 152 147 144 142 140 137 136 131 125 124 123 121 119 114 111 107 104 103
165 175 183 208 236 223 244 244 246 247 116 354 305 345 352 343 336 319 314 316 310 279 247 256 278 268 207 136 111 54 15 210 150 168 161 155 156 156 161 165 160 152 154 161 157 161 163 163 164 162 160 161 162 164 163 164 165 167 169 170 172 173 173 172 170 167 163 162 160 160 158 153 151 153 158 167 169 169 165 155 150 147 145 143 141 142 138 132 129 127 124 120 117 113 109 106 104
169 177 194 215 207 207 247 250 256 269 72 14 320 338 339 333 327 313 315 313 303 284 251 258 265 261 183 153 161 67 42 133 150 159 151 152 153 156 161 164 160 154 157 159 158 161 162 163 164 162 163 165 165 166 164 165 164 165 167 167 168 169 169 169 169 168 165 164 162 161 160 158 156 156 163 173 173 172 169 158 153 150 147 146 146 147 143 137 133 131 126 122 118 114 111 108 105
177 196 201 227 234 214 245 248 246 266 276 335 339 342 330 324 324 315 313 304 296 280 258 264 248 239 151 151 116 89 88 120 142 147 148 153 151 156 162 164 160 158 160 158 160 162 162 164 165 165 167 169 169 168 166 165 162 161 162 162 165 166 164 163 167 167 164 163 161 160 160 160 157 157 167 176 172 170 170 159 154 151 149 150 151 153 146 138 136 134 130 125 121 117 114 111 108
188 221 219 234 248 231 239 238 217 194 147 1 346 357 349 338 329 319 316 308 304 283 263 260 234 233 181 147 116 112 132 128 143 146 151 154 151 159 165 166 163 159 162 161 161 162 163 164 166 168 170 171 171 170 169 163 158 154 156 159 163 164 161 160 164 165 164 162 162 161 160 160 154 155 168 178 171 167 168 160 156 154 152 156 158 158 148 141 139 138 134 129 125 121 117 114 113
194 213 234 241 233 239 242 232 188 132 109 26 60 57 4 343 328 325 328 319 313 293 253 223 225 223 209 141 114 137 133 135 150 150 153 154 153 161 165 168 168 162 162 162 162 164 165 164 167 169 171 172 171 172 168 161 156 150 151 156 160 162 161 161 162 164 164 163 163 163 164 164 161 167 176 178 171 167 168 162 157 156 157 161 165 162 151 144 141 140 138 134 129 125 122 119 117
217 190 215 240 234 248 264 292 317 23 190 153 105 55 355 342 342 342 338 328 321 302 221 204 219 201 203 156 123 139 138 145 155 157 155 153 157 163 164 167 169 165 165 164 164 168 167 164 168 169 171 171 171 172 165 160 155 147 147 152 157 159 159 159 159 161 163 163 164 165 164 160 160 170 177 176 169 163 166 165 161 159 162 166 168 165 156 148 143 144 142 137 132 128 127 124 121
237 198 215 242 255 264 282 295 297 278 208 124 82 24 347 347 356 352 339 331 335 338 198 208 249 187 191 130 123 144 147 154 160 161 155 154 161 164 164 166 168 168 168 168 168 171 168 165 167 167 169 169 169 169 163 160 154 147 146 150 154 156 157 158 159 160 161 162 164 164 160 154 154 162 171 171 162 154 160 167 167 164 164 168 169 166 159 154 149 147 144 140 137 133 132 128 126
233 229 245 251 257 261 269 270 239 246 159 108 61 4 343 350 355 351 347 340 20 12 346 197 222 196 168 131 146 167 164 162 164 159 156 160 163 166 167 167 168 170 171 171 172 172 168 165 166 167 166 166 165 162 159 157 154 148 147 150 153 156 158 160 162 161 161 162 164 162 158 152 148 155 161 158 154 153 156 166 171 170 170 171 173 168 163 161 155 151 148 144 141 137 135 133 131
230 238 253 259 258 244 230 250 273 258 122 93 42 357 340 0 355 350 358 343 12 13 329 163 202 209 176 224 176 172 170 161 162 159 159 164 166 169 169 168 170 172 172 171 171 173 171 166 167 169 166 166 165 160 157 153 154 149 147 151 152 155 156 158 163 162 161 163 163 160 155 151 147 151 151 148 152 156 157 163 172 177 180 179 178 173 167 167 163 158 154 149 146 143 140 138 136
227 243 240 250 256 240 190 200 251 248 99 66 18 356 338 1 0 351 358 330 338 4 312 142 186 290 37 335 48 158 163 156 161 161 162 168 170 172 170 172 174 173 173 170 171 172 172 169 170 170 168 170 168 165 161 154 153 149 147 151 153 155 155 158 162 161 161 163 164 161 157 154 150 147 144 145 151 155 159 167 176 183 189 189 185 178 173 173 170 166 162 156 152 150 147 142 139
212 237 238 242 244 239 165 188 242 334 51 33 1 356 338 344 359 352 343 305 315 344 311 126 163 67 34 25 85 143 152 155 160 160 166 170 171 174 175 176 176 176 175 174 174 171 172 174 173 172 170 172 169 168 164 155 152 148 147 150 154 155 156 160 161 162 164 166 168 166 164 157 151 147 144 148 152 155 162 169 183 189 194 199 193 185 180 180 177 174 173 167 162 158 156 146 139
202 223 231 238 240 248 59 32 1 352 353 359 346 348 338 333 348 348 337 307 322 318 209 153 155 99 53 70 110 134 141 151 157 159 166 171 178 180 180 183 182 181 179 179 176 172 174 175 172 171 170 170 169 170 165 157 150 146 147 149 153 154 158 161 161 163 165 169 169 166 164 157 153 150 145 152 156 161 167 171 188 197 199 204 199 193 190 188 186 185 183 181 176 170 169 161 148
216 229 233 242 268 35 42 19 18 352 336 339 333 336 330 328 339 337 333 332 328 292 176 168 152 109 86 99 120 136 142 152 162 167 171 179 191 195 193 195 192 188 184 181 175 171 171 169 169 170 170 169 170 174 168 158 151 147 151 154 155 156 159 161 162 165 167 170 168 163 161 156 153 148 148 158 161 164 170 178 192 202 203 205 201 199 200 198 197 198 195 191 186 180 182 186 180
223 234 240 247 55 50 60 49 17 345 332 326 323 326 318 325 334 325 326 324 316 39 92 159 143 119 113 127 140 152 159 167 171 173 179 184 193 206 208 211 207 197 188 181 173 168 169 168 169 170 172 173 172 173 167 157 153 150 154 158 158 159 162 162 164 168 169 170 168 162 160 156 151 149 156 162 160 162 173 186 196 200 199 201 202 203 206 207 207 210 208 202 196 190 189 196 198
215 226 249 330 55 230 123 92 332 327 322 319 314 312 311 327 324 310 319 314 304 64 29 42 123 138 145 152 157 162 165 171 175 180 182 178 187 199 204 244 258 225 194 184 172 168 172 170 171 173 174 177 175 174 169 161 159 156 155 160 161 163 164 163 164 166 168 169 168 165 162 159 156 157 160 161 160 161 169 179 183 181 182 189 193 199 208 212 214 219 220 214 208 205 194 188 193
224 227 247 281 294 260 127 291 310 316 309 309 304 308 322 323 310 302 313 308 334 24 16 48 130 153 153 159 164 165 164 166 173 181 181 181 190 189 198 283 309 297 223 187 176 172 172 168 171 177 176 177 177 176 174 169 167 163 160 164 168 166 165 164 163 165 168 169 169 169 166 161 160 162 161 161 159 158 159 159 159 162 163 172 174 186 203 208 208 213 222 220 218 218 208 195 198
235 230 232 235 248 265 278 288 295 302 300 302 300 309 322 309 301 310 313 307 328 348 348 117 146 150 149 162 167 169 167 163 159 163 180 197 203 202 224 263 309 291 216 185 179 176 172 174 177 181 180 179 175 173 177 177 173 170 165 167 173 172 170 168 166 168 171 172 173 170 164 160 162 165 162 159 155 152 154 154 157 159 157 165 165 174 192 197 201 208 219 223 223 221 212 204 206
232 239 227 233 249 260 271 282 285 291 292 294 296 302 305 296 302 314 312 318 338 354 129 141 144 142 147 161 166 171 170 165 161 160 175 192 211 221 236 245 295 200 181 173 177 179 178 181 184 186 187 185 180 178 180 181 178 176 170 167 174 176 174 172 171 173 173 173 174 168 163 162 163 165 163 158 155 154 157 158 158 157 157 163 164 167 178 184 191 201 208 212 208 194 188 191 199
228 243 246 245 250 257 265 273 277 284 285 287 289 290 289 289 303 304 306 348 44 95 126 135 138 140 150 160 162 166 166 166 161 155 163 168 207 219 208 157 128 136 156 171 179 182 186 185 188 193 192 190 186 184 183 183 182 179 172 168 173 176 176 177 176 175 174 172 170 165 165 163 162 164 165 161 159 161 160 158 158 158 160 163 162 162 167 171 177 187 190 190 180 169 178 183 184
217 235 246 253 257 262 268 272 276 279 277 282 284 282 282 289 305 292 296 67 104 123 129 134 136 143 152 159 160 162 162 158 144 140 159 176 198 199 182 153 143 138 158 190 187 184 190 191 193 196 196 193 188 187 186 183 181 180 175 171 176 178 176 177 177 176 175 173 168 166 167 163 160 163 167 166 165 166 163 160 162 164 166 165 164 163 166 171 176 183 183 179 171 164 177 177 170
193 235 248 258 266 268 270 273 273 276 272 269 272 279 282 284 287 258 111 100 134 132 133 137 140 148 152 156 159 166 165 153 142 140 153 164 183 189 186 173 162 157 169 184 192 192 193 199 199 199 202 198 190 188 188 184 183 183 178 172 177 180 177 177 181 182 178 176 173 171 168 162 159 161 166 170 170 169 163 162 166 168 169 166 167 169 172 176 179 185 184 184 180 176 181 178 167
263 249 256 253 259 258 253 260 264 265 266 260 263 276 277 264 258 233 104 112 151 141 141 144 146 151 153 156 157 164 164 154 147 149 152 151 169 177 165 156 156 158 163 169 179 190 196 205 203 199 203 201 193 190 187 187 188 186 179 173 177 181 181 184 188 188 183 182 180 174 168 163 163 164 166 171 173 170 166 166 167 166 166 166 171 175 175 178 181 187 187 189 190 187 187 184 179
254 248 259 246 243 244 233 244 258 253 260 266 266 270 253 236 228 161 121 141 159 155 150 148 150 153 156 157 156 160 161 160 156 152 155 154 155 153 143 142 146 145 152 156 163 178 192 204 207 200 198 197 194 195 196 193 189 187 185 182 181 182 185 189 190 189 189 190 184 177 173 168 168 169 168 171 173 171 168 167 166 166 171 175 179 179 178 177 179 185 186 187 193 193 191 189 186
244 227 246 253 237 224 186 216 245 236 245 252 247 258 227 204 171 111 132 161 166 164 156 154 157 157 163 163 160 165 164 168 168 155 160 159 150 147 145 147 150 149 153 160 166 176 186 200 208 202 196 196 199 207 208 200 193 192 193 191 189 190 191 192 192 192 193 193 187 179 176 174 173 172 172 175 174 174 171 170 172 178 188 188 182 176 176 177 177 181 181 183 188 186 188 183 171
234 212 220 244 242 164 123 158 243 220 169 196 227 246 224 175 119 97 137 164 174 173 162 163 166 166 171 172 170 174 175 180 179 167 171 167 157 156 156 153 156 162 166 170 174 180 186 194 199 197 195 200 206 208 205 203 201 200 202 200 197 199 197 194 194 195 195 193 188 180 176 178 178 174 176 179 177 176 175 176 181 191 199 191 182 180 178 177 177 180 177 179 183 178 182 176 170
218 228 207 205 227 150 134 164 265 293 102 175 221 241 237 177 108 100 133 162 183 182 170 168 173 177 180 182 182 182 184 188 185 183 184 178 171 167 166 164 167 173 172 171 177 182 189 194 195 198 200 204 208 207 205 205 204 205 208 206 203 199 195 192 194 199 197 192 185 177 178 180 181 177 178 182 180 177 177 181 190 201 201 192 191 191 187 184 186 188 184 182 179 169 166 167 180
205 233 232 182 211 197 152 158 172 297 272 186 223 257 252 176 109 110 128 161 189 191 180 175 176 184 189 189 189 187 189 192 190 194 191 182 177 172 171 174 174 173 174 178 183 184 189 196 198 201 201 204 208 208 209 207 206 208 208 206 202 199 198 192 194 198 194 188 181 178 182 183 181 181 182 185 182 176 177 186 198 205 198 199 207 201 193 195 198 198 193 190 175 155 159 173 186
190 211 240 209 223 248 177 152 153 229 261 218 224 253 263 253 126 123 133 162 189 198 187 182 184 188 193 196 196 194 194 197 193 194 194 187 182 175 171 175 176 175 178 185 192 193 195 200 198 195 198 205 205 202 207 209 207 206 200 196 198 201 198 189 189 193 188 184 185 184 185 185 183 185 188 187 182 178 184 195 205 208 204 208 211 200 195 198 199 200 203 201 181 160 172 185 186
199 198 231 220 213 233 235 179 139 223 262 248 237 239 249 256 213 137 144 167 189 204 191 190 194 192 195 197 201 202 198 200 197 196 201 195 189 185 180 181 181 180 181 185 198 206 208 212 207 200 203 208 203 198 204 207 200 198 195 191 198 202 194 187 188 191 187 186 191 189 185 187 187 187 189 187 184 186 196 205 210 212 211 210 205 197 198 200 199 202 207 204 189 178 180 180 178
248 215 253 254 222 217 220 241 307 295 277 260 249 246 243 246 220 140 140 172 191 208 200 197 198 196 200 198 202 206 202 202 198 198 208 203 197 194 188 186 184 182 185 188 199 200 203 213 214 211 209 208 205 199 200 200 195 197 199 195 199 197 187 185 188 190 191 191 197 194 185 185 188 188 187 187 192 198 205 210 213 213 209 206 201 196 198 201 201 201 203 201 194 189 180 174 180
276 258 253 253 252 241 178 216 257 286 283 264 249 252 250 250 241 154 134 180 202 210 208 206 204 200 201 202 203 206 205 203 198 200 211 208 203 199 190 185 182 180 187 192 195 192 198 209 213 214 211 208 207 201 196 196 194 195 199 195 193 191 185 184 188 191 192 193 197 196 186 182 185 190 190 191 199 205 209 213 213 210 204 202 200 195 196 198 196 198 198 195 192 188 175 171 181
247 252 254 249 249 246 177 227 261 251 265 264 252 252 248 247 249 195 147 205 221 217 213 211 212 207 203 203 202 202 205 205 200 202 207 207 208 204 192 185 188 184 189 196 197 196 199 207 212 215 214 210 202 194 196 198 196 198 199 191 185 187 186 184 187 190 190 194 195 192 189 187 186 190 193 196 201 204 210 214 212 206 202 202 197 196 199 196 196 196 194 190 184 184 178 173 173
239 241 253 254 251 257 213 221 236 219 242 260 256 256 252 248 250 237 209 231 236 226 221 217 217 215 210 205 199 195 199 203 204 203 203 209 214 209 198 196 195 194 199 202 202 194 188 194 205 213 215 215 206 197 200 199 196 198 195 185 181 185 187 186 188 190 190 193 193 190 191 191 192 195 198 200 201 203 207 208 209 204 199 196 193 196 199 197 198 194 189 188 185 185 184 176 171
232 237 247 245 230 246 229 190 183 220 253 271 277 272 263 253 250 249 231 224 230 227 226 224 223 223 219 211 202 195 195 198 201 202 201 206 211 208 203 203 201 205 206 201 206 196 185 187 193 202 207 210 210 201 197 195 192 192 186 181 183 185 188 187 187 190 190 191 191 191 194 195 196 199 199 200 201 203 202 203 208 204 198 193 189 194 200 198 198 195 190 187 184 188 189 188 182
229 234 247 257 255 254 265 245 223 257 250 247 264 267 255 240 237 238 208 192 209 214 219 224 225 228 227 218 207 200 197 198 199 199 197 197 200 203 204 208 213 216 208 199 204 200 194 193 192 202 208 205 204 195 190 191 185 181 178 181 185 185 186 185 185 186 187 191 192 191 196 199 197 194 193 194 198 198 199 203 208 209 207 201 192 190 198 199 192 192 195 188 184 184 185 197 193
238 225 233 255 265 260 264 259 252 263 240 206 221 250 246 219 223 230 199 188 203 197 205 222 223 224 225 219 210 201 197 200 198 193 193 193 194 201 209 219 222 214 202 200 199 193 199 202 195 202 204 196 199 195 188 185 176 174 181 182 181 181 182 183 184 185 187 191 189 188 197 199 192 189 186 190 196 195 197 201 203 208 210 206 202 194 194 199 189 189 198 192 189 186 179 188 195
253 212 215 242 254 254 252 242 226 251 249 161 198 248 260 208 211 223 208 205 206 190 200 225 226 223 220 215 208 200 195 198 194 184 185 188 185 192 203 210 207 195 197 201 193 185 190 196 199 205 198 191 202 198 183 175 172 177 183 181 177 178 181 184 186 188 190 190 186 187 192 189 184 184 183 189 194 191 193 195 195 199 201 201 203 198 194 197 193 190 193 189 190 193 183 181 191
254 101 204 243 243 238 232 224 224 245 305 157 201 240 267 253 229 212 209 219 212 197 215 230 228 226 219 210 202 197 192 190 184 173 171 177 177 178 181 186 187 182 188 197 196 187 181 184 196 208 206 204 210 200 183 178 178 181 181 178 176 176 182 186 185 186 186 186 186 184 182 179 179 181 183 188 189 188 190 188 188 191 191 189 188 189 188 189 192 189 187 185 186 193 188 179 186
247 87 274 263 249 235 223 217 223 233 254 223 209 217 250 259 232 197 212 225 205 178 247 248 228 224 214 205 197 191 187 183 178 167 158 161 166 169 170 177 184 182 181 196 200 184 181 191 196 207 216 216 211 199 186 183 184 181 175 174 173 173 182 186 182 179 178 179 180 175 172 175 177 180 183 186 186 186 187 184 182 183 181 181 180 185 189 187 191 190 188 189 187 191 190 183 188
236 104 250 255 239 230 217 221 222 204 235 246 213 200 236 260 233 201 211 220 190 120 319 332 212 208 197 193 190 185 179 170 162 157 155 157 163 172 179 181 185 192 197 203 199 181 176 187 190 198 212 211 203 193 183 181 184 178 169 171 175 177 185 185 177 173 170 171 174 173 173 175 177 182 183 184 185 185 187 185 181 182 183 182 185 193 200 198 203 204 199 203 201 198 196 192 194
150 212 225 210 202 204 207 224 229 213 230 241 210 195 232 259 247 150 117 111 12 329 288 347 182 191 182 176 174 174 172 162 152 154 162 171 179 183 187 183 177 179 183 189 192 179 167 171 176 180 191 192 188 184 179 180 182 176 170 177 182 183 184 178 170 168 168 172 175 174 176 176 177 182 183 186 189 185 186 186 181 183 186 186 189 196 200 205 213 214 207 208 210 205 202 199 200
217 233 226 207 193 189 206 208 210 233 234 219 191 198 233 249 242 75 72 62 9 319 301 292 215 180 168 159 155 160 164 164 166 171 176 188 196 193 190 181 173 170 173 181 185 175 165 166 167 164 172 182 182 179 179 181 181 177 177 184 190 190 182 171 168 170 173 176 174 170 173 176 176 177 181 186 189 184 181 182 179 181 186 187 189 195 198 202 207 207 202 202 202 202 199 191 199
218 231 225 221 206 191 213 208 202 233 226 150 163 205 239 245 129 78 64 52 15 334 324 279 216 171 162 158 153 151 153 158 166 177 183 186 190 188 183 177 175 178 178 177 178 174 167 166 167 168 176 182 181 179 179 180 181 180 180 182 189 192 181 172 174 175 175 173 171 171 171 173 175 176 177 178 179 175 168 171 173 173 180 183 187 197 200 195 191 186 190 189 182 184 178 167 187
211 218 217 224 219 205 218 215 212 230 207 139 160 211 243 239 107 69 43 40 21 1 32 75 139 141 143 147 147 145 151 163 169 178 182 177 176 178 177 176 175 175 178 176 175 174 169 170 176 179 181 182 181 179 178 179 181 182 182 183 186 185 176 174 178 179 176 173 174 177 174 175 177 174 172 170 167 165 161 166 172 172 180 186 190 194 189 182 174 164 173 172 161 159 149 142 153
205 219 227 233 235 229 232 234 235 237 212 149 159 202 247 241 119 77 51 52 44 37 65 73 84 115 125 131 138 143 160 175 174 176 178 174 177 178 176 176 171 165 174 178 175 177 178 178 180 183 183 183 181 179 178 179 180 181 184 188 185 178 172 175 181 181 181 180 180 180 176 174 174 170 168 167 163 163 166 171 175 177 182 181 176 171 164 165 161 148 147 147 140 139 135 133 134
196 213 233 237 241 240 241 284 326 278 248 182 175 223 266 144 124 114 93 68 62 64 79 85 89 110 123 131 137 142 155 166 169 175 178 176 179 179 175 176 168 159 170 178 178 183 187 183 182 185 185 183 182 182 182 180 180 184 186 185 182 176 173 178 183 182 181 181 179 177 174 172 171 169 169 168 165 167 172 174 171 169 170 165 160 156 153 153 150 140 135 132 128 128 131 133 132
178 205 225 222 249 257 238 182 93 287 260 218 191 236 194 135 151 135 105 72 74 83 90 107 114 116 127 135 139 145 150 154 158 164 167 169 173 175 174 178 174 163 169 179 185 189 191 186 184 185 183 182 184 187 189 186 184 187 187 182 178 175 176 181 182 177 175 174 172 173 173 172 172 173 173 170 168 170 172 169 159 155 160 162 159 154 153 154 148 138 132 129 130 131 133 140 139
198 209 215 181 216 259 249 234 199 213 244 220 201 241 218 178 192 147 123 76 75 89 97 118 130 131 134 128 128 141 146 143 145 147 148 154 164 173 178 182 184 175 173 182 189 192 192 186 183 183 183 183 185 190 194 191 187 188 187 183 177 172 174 178 177 174 172 171 170 171 174 176 176 178 177 172 169 170 168 161 154 151 154 162 163 157 157 156 148 141 137 134 138 136 133 142 143
234 266 250 203 217 224 215 230 233 225 239 231 212 231 234 211 177 157 159 107 82 91 101 110 115 115 118 111 107 120 133 133 135 139 140 145 156 166 171 178 185 182 180 187 193 194 190 185 182 185 186 184 187 193 195 193 189 187 188 185 178 172 173 173 174 175 172 170 172 173 174 176 176 179 177 172 169 168 164 160 158 153 150 159 167 165 162 158 151 147 143 141 142 134 122 131 134
228 261 249 230 243 241 218 218 232 238 238 235 220 217 230 60 116 140 143 119 106 105 112 107 93 93 102 109 110 116 128 136 139 139 138 144 154 154 151 162 176 182 183 187 192 190 187 185 184 186 187 186 189 193 194 194 191 186 187 186 180 174 173 174 175 176 173 174 175 174 173 173 174 179 177 172 170 167 164 163 164 158 151 155 165 169 166 161 156 150 146 146 143 133 126 129 128
206 222 220 214 219 242 247 225 227 253 252 238 238 220 136 56 68 102 107 117 123 116 113 100 86 91 95 101 115 125 130 135 134 133 133 136 149 153 148 153 165 179 187 188 189 185 184 190 190 187 187 188 190 192 193 194 191 186 185 185 183 178 176 177 177 175 176 179 176 172 174 172 170 178 178 174 171 169 167 167 166 163 156 152 161 167 166 162 159 156 154 150 141 135 133 129 124
225 223 221 218 211 214 233 225 211 235 255 256 262 247 110 73 34 81 113 138 140 119 109 95 80 88 95 91 86 88 94 99 104 118 133 141 156 163 162 162 164 175 188 189 188 184 187 196 196 190 188 190 191 191 193 194 190 187 186 185 184 180 178 179 178 174 175 177 175 172 174 172 169 175 178 175 174 173 171 169 166 166 163 156 157 162 162 160 160 159 152 143 138 138 136 128 121